Weather History for O'Neill, NE

Change the Weather History Date:

Thursday, January 30, 2014

  Actual Average Record
Temperature  
Mean Temperature 32 °F -  
Max Temperature 46 °F 31 °F 67 °F (2012)
Min Temperature 16 °F 10 °F -24 °F (1966)
Degree Days  
Heating Degree Days 34    
Moisture  
Dew Point 11 °F    
Average Humidity 56    
Maximum Humidity 77    
Minimum Humidity 21    
Precipitation  
Precipitation 0.00 in - - ()
Sea Level Pressure  
Sea Level Pressure 29.72 in    
Wind  
Wind Speed 15 mph (NNW)    
Max Wind Speed 32 mph    
Max Gust Speed 40 mph    
Visibility 10 miles    
Events      
Averages and records for this station are not official NWS values.
T = Trace of Precipitation, MM = Missing Value Source: NWS Daily Summary

Daily Weather History Graph

Daily Weather History Graph

Search for Another Location

Airport:

Trip Planner

Search our weather history database for the weather conditions in past years. The results will help you decide how hot, cold, wet, or windy it might be!

Date:

Astronomy

Jan. 30, 2014 Rise Set
Actual Time 7:50 AM CST 5:46 PM CST
Civil Twilight 7:20 AM CST 6:16 PM CST
Nautical Twilight 6:46 AM CST 6:49 PM CST
Astronomical Twilight 6:13 AM CST 7:22 PM CST
Moon 7:16 AM CST (1/30) 6:01 PM CST (1/30)
Length of Visible Light 10h 55m
Length of Day
9h 55m
Waning Crescent, 0% of the Moon is Illuminated
Jan 30
Waning Crescent
Jan 30
New
Feb 6
First Quarter
Feb 14
Full
Feb 22
Last Quarter

Hourly Weather History & Observations

Time (CST) Temp. Windchill Dew Point Humidity Pressure Visibility Wind Dir Wind Speed Gust Speed Precip Events Conditions
12:15 AM 42.4 °F 37.0 °F 5.9 °F 22% 29.35 in 10.0 mi South 9.2 mph - N/A   Overcast
12:35 AM 43.2 °F 37.0 °F 5.9 °F 22% 29.34 in 10.0 mi SSW 11.5 mph - N/A   Overcast
12:55 AM 43.7 °F 38.6 °F 5.9 °F 21% 29.33 in 10.0 mi SSW 9.2 mph - N/A   Overcast
1:15 AM 43.7 °F 38.1 °F 6.6 °F 22% 29.30 in 10.0 mi South 10.4 mph - N/A   Overcast
1:35 AM 45.0 °F 40.1 °F 6.8 °F 21% 29.30 in 10.0 mi SSW 9.2 mph 18.4 mph N/A   Overcast
1:55 AM 46.4 °F 40.1 °F 8.4 °F 21% 29.28 in 10.0 mi SSW 15.0 mph 20.7 mph N/A   Overcast
2:15 AM 46.0 °F 39.6 °F 9.0 °F 22% 29.29 in 10.0 mi SSW 15.0 mph 18.4 mph N/A   Overcast
2:35 AM 45.9 °F 40.0 °F 9.9 °F 23% 29.29 in 10.0 mi SW 12.7 mph 19.6 mph N/A   Overcast
2:55 AM 46.8 °F - 13.6 °F 26% 29.29 in 10.0 mi WSW 16.1 mph 23.0 mph N/A   Overcast
3:15 AM 46.6 °F - 16.0 °F 29% 29.28 in 10.0 mi SW 10.4 mph - N/A   Light Drizzle
3:35 AM 45.5 °F 39.6 °F 17.1 °F 32% 29.29 in 10.0 mi WSW 12.7 mph - N/A   Overcast
3:55 AM 45.1 °F 39.1 °F 23.4 °F 42% 29.29 in 10.0 mi WSW 12.7 mph - N/A   Light Drizzle
4:15 AM 44.6 °F 37.2 °F 29.8 °F 56% 29.30 in 10.0 mi West 17.3 mph - N/A   Light Drizzle
4:35 AM 46.0 °F 38.5 °F 33.8 °F 62% 29.30 in 10.0 mi West 19.6 mph 25.3 mph N/A   Overcast
4:55 AM 46.4 °F 38.1 °F 33.8 °F 62% 29.33 in 10.0 mi NW 24.2 mph 31.1 mph N/A   Overcast
5:15 AM 31.8 °F 18.1 °F 25.3 °F 77% 29.37 in 10.0 mi NNW 26.5 mph 34.5 mph N/A   Overcast
5:35 AM 28.0 °F 12.8 °F 21.4 °F 76% 29.43 in 10.0 mi NNW 27.6 mph 38.0 mph N/A   Overcast
5:55 AM 25.7 °F 9.9 °F 19.2 °F 76% 29.47 in 10.0 mi NW 26.5 mph 38.0 mph N/A   Overcast
6:15 AM 24.3 °F 7.7 °F 17.4 °F 75% 29.50 in 10.0 mi NNW 27.6 mph 35.7 mph N/A   Overcast
6:35 AM 22.8 °F 7.0 °F 15.6 °F 74% 29.52 in 10.0 mi NNW 23.0 mph 33.4 mph N/A   Overcast
6:55 AM 21.2 °F 5.6 °F 14.7 °F 76% 29.55 in 10.0 mi NNW 20.7 mph 33.4 mph N/A   Overcast
7:15 AM 20.3 °F 3.7 °F 13.6 °F 75% 29.57 in 10.0 mi NNW 23.0 mph 34.5 mph N/A   Overcast
7:35 AM 19.8 °F 2.6 °F 13.1 °F 75% 29.60 in 10.0 mi NNW 24.2 mph 32.2 mph N/A   Overcast
7:55 AM 19.4 °F 0.5 °F 13.1 °F 76% 29.62 in 10.0 mi NNW 29.9 mph 38.0 mph N/A   Overcast
8:15 AM 19.2 °F -0.0 °F 13.1 °F 77% 29.64 in 10.0 mi NNW 31.1 mph 40.3 mph N/A   Overcast
8:35 AM 19.2 °F -0.3 °F 12.9 °F 76% 29.67 in 10.0 mi NNW 32.2 mph 39.1 mph N/A   Overcast
8:55 AM 18.9 °F 1.0 °F 12.2 °F 75% 29.70 in 10.0 mi NNW 25.3 mph 32.2 mph N/A   Overcast
9:15 AM 19.2 °F 1.5 °F 12.4 °F 75% 29.73 in 10.0 mi NNW 25.3 mph 33.4 mph N/A   Overcast
9:35 AM 19.4 °F 1.4 °F 11.8 °F 72% 29.75 in 10.0 mi NNW 26.5 mph 33.4 mph N/A   Overcast
9:55 AM 19.4 °F 3.2 °F 10.6 °F 69% 29.77 in 10.0 mi NNW 20.7 mph 27.6 mph N/A   Overcast
10:15 AM 19.8 °F 3.3 °F 10.4 °F 67% 29.78 in 10.0 mi NNW 21.9 mph 32.2 mph N/A   Overcast
10:35 AM 20.3 °F 3.0 °F 10.2 °F 65% 29.80 in 10.0 mi North 25.3 mph 32.2 mph N/A   Overcast
10:55 AM 20.5 °F 4.3 °F 9.3 °F 62% 29.81 in 10.0 mi NNW 21.9 mph 28.8 mph N/A   Overcast
11:15 AM 21.0 °F 5.4 °F 9.3 °F 61% 29.81 in 10.0 mi North 20.7 mph - N/A   Overcast
11:35 AM 22.3 °F 6.6 °F 9.9 °F 59% 29.82 in 10.0 mi NNW 21.9 mph 26.5 mph N/A   Overcast
11:55 AM 23.5 °F 9.9 °F 9.9 °F 56% 29.81 in 10.0 mi NNW 17.3 mph 25.3 mph N/A   Mostly Cloudy
12:15 PM 24.6 °F 10.9 °F 9.7 °F 53% 29.82 in 10.0 mi NNW 18.4 mph 23.0 mph N/A   Scattered Clouds
12:35 PM 25.0 °F 10.9 °F 10.0 °F 53% 29.81 in 10.0 mi NNW 19.6 mph - N/A   Clear
12:55 PM 26.6 °F 14.3 °F 10.6 °F 51% 29.82 in 10.0 mi NNW 16.1 mph 20.7 mph N/A   Clear
1:15 PM 26.4 °F 14.0 °F 9.9 °F 50% 29.81 in 10.0 mi North 16.1 mph 26.5 mph N/A   Clear
1:35 PM 27.1 °F 13.8 °F 9.5 °F 48% 29.81 in 10.0 mi NNW 19.6 mph - N/A   Clear
1:55 PM 27.7 °F 14.8 °F 9.9 °F 47% 29.81 in 10.0 mi North 18.4 mph 23.0 mph N/A   Clear
2:15 PM 27.5 °F 15.4 °F 10.2 °F 48% 29.81 in 10.0 mi NNW 16.1 mph 21.9 mph N/A   Clear
2:35 PM 27.3 °F 14.4 °F 10.0 °F 48% 29.82 in 10.0 mi NNW 18.4 mph 25.3 mph N/A   Clear
2:55 PM 27.9 °F 16.3 °F 9.5 °F 46% 29.82 in 10.0 mi NNW 15.0 mph 20.7 mph N/A   Clear
3:15 PM 26.6 °F 13.4 °F 8.8 °F 47% 29.84 in 10.0 mi North 18.4 mph 25.3 mph N/A   Clear
3:35 PM 26.2 °F 15.2 °F 9.3 °F 49% 29.85 in 10.0 mi North 12.7 mph 21.9 mph N/A   Clear
3:55 PM 25.0 °F 12.6 °F 8.4 °F 50% 29.87 in 10.0 mi North 15.0 mph - N/A   Clear
4:15 PM 24.3 °F 14.6 °F 8.6 °F 51% 29.88 in 10.0 mi North 9.2 mph 16.1 mph N/A   Clear
4:35 PM 23.5 °F 13.0 °F 8.6 °F 53% 29.89 in 10.0 mi North 10.4 mph - N/A   Clear
4:55 PM 22.8 °F 12.9 °F 8.6 °F 55% 29.90 in 10.0 mi North 9.2 mph - N/A   Clear
5:15 PM 22.5 °F 12.4 °F 8.6 °F 55% 29.91 in 10.0 mi North 9.2 mph - N/A   Scattered Clouds
5:35 PM 21.9 °F 13.4 °F 8.6 °F 57% 29.92 in 10.0 mi North 6.9 mph - N/A   Mostly Cloudy
5:55 PM 22.1 °F 15.9 °F 9.1 °F 58% 29.93 in 10.0 mi North 4.6 mph - N/A   Overcast
6:15 PM 21.9 °F 12.5 °F 9.1 °F 58% 29.95 in 10.0 mi North 8.1 mph - N/A   Overcast
6:35 PM 21.6 °F 11.3 °F 9.0 °F 58% 29.96 in 10.0 mi NNW 9.2 mph - N/A   Overcast
6:55 PM 21.4 °F 10.4 °F 9.1 °F 59% 29.97 in 10.0 mi North 10.4 mph - N/A   Overcast
7:15 PM 21.2 °F 11.7 °F 9.0 °F 59% 29.98 in 10.0 mi North 8.1 mph - N/A   Overcast
7:35 PM 21.0 °F 12.4 °F 8.8 °F 59% 29.99 in 10.0 mi NNW 6.9 mph - N/A   Overcast
7:55 PM 20.8 °F 13.2 °F 8.4 °F 59% 29.99 in 10.0 mi NNW 5.8 mph - N/A   Overcast
8:15 PM 20.7 °F 13.0 °F 8.2 °F 59% 29.99 in 10.0 mi North 5.8 mph - N/A   Overcast
8:35 PM 20.7 °F 14.2 °F 7.9 °F 58% 30.00 in 10.0 mi North 4.6 mph - N/A   Overcast
8:55 PM 20.3 °F 13.8 °F 7.5 °F 58% 30.00 in 10.0 mi North 4.6 mph - N/A   Overcast
9:15 PM 19.8 °F 13.2 °F 7.5 °F 59% 30.02 in 10.0 mi North 4.6 mph - N/A   Mostly Cloudy
9:35 PM 18.7 °F - 7.5 °F 62% 30.02 in 10.0 mi Calm Calm - N/A   Mostly Cloudy
9:55 PM 17.8 °F 9.6 °F 7.5 °F 64% 30.02 in 10.0 mi NNW 5.8 mph - N/A   Scattered Clouds
10:15 PM 17.6 °F - 7.7 °F 65% 30.02 in 10.0 mi Calm Calm - N/A   Clear
10:35 PM 17.6 °F 12.3 °F 8.1 °F 66% 30.03 in 10.0 mi NNW 3.5 mph - N/A   Mostly Cloudy
10:55 PM 17.4 °F - 7.7 °F 66% 30.03 in 10.0 mi Calm Calm - N/A   Mostly Cloudy
11:15 PM 17.4 °F - 8.1 °F 67% 30.04 in 10.0 mi Calm Calm - N/A   Scattered Clouds
11:35 PM 17.2 °F 8.9 °F 8.4 °F 68% 30.02 in 10.0 mi NNW 5.8 mph - N/A   Scattered Clouds
11:55 PM 16.7 °F - 8.1 °F 69% 30.03 in 10.0 mi Calm Calm - N/A   Scattered Clouds